Terug naar catalogus

OPS 4682 DEB

ActiefPO
NORAD 17722·DEBRIS·🇺🇸 United States

Gelanceerd Apr 3, 1965 vanaf Vandenberg Space Force Base

Loading…

Volgende Passages (komende 24 uur)

TLE

VersSource: Space-Track

Epoch: Sep 13, 2026, 18:39 UTC

1 17722U 65027W   26256.77746627  .00000514  00000-0  17083-2 0  9997
2 17722  90.2416 356.3137 0003194  62.4752  91.8148 12.98980741955856

Volg OPS 4682 DEB in realtime met AllMySat

Download on the App Store